CW2732 Elche ES current weather conditions

sailwx.info

Wind from 331 at 0 knots gusting 7

Air temperature 20.0° C
Dewpoint 15.0° C

Last reported at 2017-Sep-23 02:03 UTC.
Time now 2017-Sep-23 02:26 UTC

Location: N 38°15' W 000°42'.
View on Google Maps.

See reports from other nearby stations

  
Tides and Currents Weather Stations Pressure Air Temp Water Temp Dewpoint Dewpoint Depression Visibility Wind Speed Wind Dir Waves Ship Positions
date/time (UTC)wind fromknots sea level pressurealtimeterstation pressurevisibilityair tempwater tempwave heightnotes
2017-Sep-23 02:03 331 0 gusting 7 20.0
2017-Sep-23 01:53 314 1 gusting 6 20.6
2017-Sep-23 01:43 330 3 gusting 6 20.6
2017-Sep-23 01:33 326 20.6
2017-Sep-23 01:23 328 20.6
2017-Sep-23 01:13 336 20.6
2017-Sep-23 01:03 326 0 gusting 6 20.6
2017-Sep-23 00:53 323 0 gusting 5 21.1
2017-Sep-23 00:43 323 21.1
2017-Sep-23 00:33 332 0 gusting 5 21.1
2017-Sep-23 00:23 336 2 gusting 6 21.1
2017-Sep-23 00:13 009 21.7
2017-Sep-23 00:03 355 0 gusting 6 21.7
2017-Sep-22 23:53 005 21.7
2017-Sep-22 23:43 344 21.7
2017-Sep-22 23:33 005 21.7
2017-Sep-22 23:23 360 21.7
2017-Sep-22 23:13 360 21.7
2017-Sep-22 23:03 011 21.7
2017-Sep-22 22:53 011 21.7
2017-Sep-22 22:43 010 21.7
2017-Sep-22 22:33 005 21.7
2017-Sep-22 22:24 009 21.7
2017-Sep-22 22:13 341 21.7
2017-Sep-22 22:03 355 21.7
2017-Sep-22 21:53 013 22.2
2017-Sep-22 21:43 046 22.2
2017-Sep-22 21:33 026 22.2
2017-Sep-22 21:23 044 0 gusting 5 22.8
2017-Sep-22 21:13 050 0 gusting 5 22.8
2017-Sep-22 21:03 069 0 gusting 4 22.8
2017-Sep-22 20:53 049 0 gusting 5 22.8
2017-Sep-22 20:43 075 22.8
2017-Sep-22 20:33 057 1 gusting 6 22.8
2017-Sep-22 20:23 053 0 gusting 8 22.8
2017-Sep-22 20:13 086 0 gusting 12 22.8
2017-Sep-22 20:03 080 1 gusting 7 22.8
2017-Sep-22 19:53 090 1 gusting 9 22.8
2017-Sep-22 19:43 074 0 gusting 7 22.8
2017-Sep-22 19:33 079 1 gusting 8 22.8
2017-Sep-22 19:23 053 3 gusting 8 22.8
2017-Sep-22 19:13 082 22.8
2017-Sep-22 19:03 088 4 gusting 11 22.8
2017-Sep-22 18:53 088 2 gusting 6 22.8
2017-Sep-22 18:43 085 4 gusting 8 22.8
2017-Sep-22 18:33 082 0 gusting 11 22.8
2017-Sep-22 18:23 089 5 gusting 11 22.8
2017-Sep-22 18:13 076 6 gusting 11 22.8
2017-Sep-22 18:03 093 4 gusting 12 23.3
2017-Sep-22 17:53 098 7 gusting 15 23.3
2017-Sep-22 17:43 078 6 gusting 15 23.3
2017-Sep-22 17:33 089 2 gusting 11 23.3
2017-Sep-22 17:23 044 7 gusting 14 23.3
2017-Sep-22 17:13 073 4 gusting 12 23.9
2017-Sep-22 17:03 071 2 gusting 13 23.9
2017-Sep-22 16:53 083 9 gusting 15 23.9
2017-Sep-22 16:43 088 8 gusting 15 23.9
2017-Sep-22 16:33 070 6 gusting 14 24.4
2017-Sep-22 16:23 071 6 gusting 12 24.4
2017-Sep-22 16:13 088 4 gusting 13 24.4
2017-Sep-22 16:03 086 7 gusting 14 24.4
2017-Sep-22 15:53 069 8 gusting 15 24.4
2017-Sep-22 15:43 099 6 gusting 13 24.4
2017-Sep-22 15:33 080 6 gusting 12 24.4
2017-Sep-22 15:23 075 7 gusting 14 25.0
2017-Sep-22 15:13 089 6 gusting 13 24.4
2017-Sep-22 15:03 092 6 gusting 13 24.4
2017-Sep-22 14:53 086 7 gusting 13 25.0
2017-Sep-22 14:43 042 6 gusting 12 24.4
2017-Sep-22 14:33 117 6 gusting 14 24.4
2017-Sep-22 14:23 068 7 gusting 13 25.0
2017-Sep-22 14:13 103 7 gusting 13 25.0
2017-Sep-22 14:03 074 7 gusting 13 25.0
2017-Sep-22 13:53 076 1 gusting 13 25.6
2017-Sep-22 13:43 087 9 gusting 14 25.6
2017-Sep-22 13:33 113 9 gusting 13 25.6
2017-Sep-22 13:23 166 4 gusting 16 26.1
2017-Sep-22 13:13 069 5 gusting 12 25.6
2017-Sep-22 13:03 078 5 gusting 10 26.1
2017-Sep-22 12:53 087 4 gusting 13 25.6
2017-Sep-22 12:43 110 3 gusting 11 25.6
2017-Sep-22 12:33 101 4 gusting 10 25.6
2017-Sep-22 12:23 096 6 gusting 13 25.6
2017-Sep-22 12:13 106 5 gusting 13 25.0
2017-Sep-22 12:03 082 6 gusting 12 25.6
2017-Sep-22 11:53 083 6 gusting 13 25.0
2017-Sep-22 11:43 085 3 gusting 14 25.6
2017-Sep-22 11:33 101 5 gusting 13 25.6
2017-Sep-22 11:23 076 6 gusting 10 25.6
2017-Sep-22 11:13 102 5 gusting 12 25.0
2017-Sep-22 11:03 082 3 gusting 13 25.0
2017-Sep-22 10:53 099 5 gusting 13 25.0
2017-Sep-22 10:43 071 7 gusting 12 25.6
2017-Sep-22 10:33 119 6 gusting 12 25.6
2017-Sep-22 10:23 027 4 gusting 14 25.0
2017-Sep-22 10:13 121 6 gusting 13 25.0
2017-Sep-22 10:03 060 6 gusting 10 25.0
2017-Sep-22 09:53 096 0 gusting 11 25.6
2017-Sep-22 09:43 080 3 gusting 13 25.0
2017-Sep-22 09:33 052 7 gusting 12 25.0
2017-Sep-22 09:23 106 3 gusting 11 25.0
2017-Sep-22 09:13 011 2 gusting 13 24.4
2017-Sep-22 09:03 068 6 gusting 12 24.4
2017-Sep-22 08:53 078 3 gusting 12 24.4
2017-Sep-22 08:43 076 3 gusting 8 25.0
2017-Sep-22 08:33 065 3 gusting 9 24.4
2017-Sep-22 08:23 025 3 gusting 7 24.4
2017-Sep-22 08:13 082 3 gusting 10 23.9
2017-Sep-22 08:03 082 4 gusting 8 23.9
2017-Sep-22 07:53 079 2 gusting 6 23.9
2017-Sep-22 07:43 325 23.9
2017-Sep-22 07:33 336 23.3
2017-Sep-22 07:23 333 22.8
2017-Sep-22 07:13 327 22.8
2017-Sep-22 07:03 341 21.7
2017-Sep-22 06:53 340 21.1
2017-Sep-22 06:43 334 21.1
2017-Sep-22 06:33 331 0 gusting 4 20.6
2017-Sep-22 06:23 340 20.6
2017-Sep-22 06:13 329 20.0
2017-Sep-22 06:03 332 0 gusting 6 20.0
2017-Sep-22 05:53 333 0 gusting 6 20.0
2017-Sep-22 05:43 331 1 gusting 6 20.0
2017-Sep-22 05:33 313 2 gusting 6 20.0
2017-Sep-22 05:23 311 1 gusting 7 20.0
2017-Sep-22 05:13 322 1 gusting 6 20.0
2017-Sep-22 05:03 323 1 gusting 6 20.0
2017-Sep-22 04:53 355 3 gusting 7 20.0
2017-Sep-22 04:43 331 1 gusting 7 20.6
2017-Sep-22 04:33 338 3 gusting 6 20.6
2017-Sep-22 04:23 046 0 gusting 6 20.6
2017-Sep-22 04:13 298 0 gusting 6 20.0
2017-Sep-22 04:03 327 2 gusting 8 20.0
2017-Sep-22 03:53 329 20.0
2017-Sep-22 03:43 321 1 gusting 6 20.0
2017-Sep-22 03:33 315 20.6
2017-Sep-22 03:23 327 0 gusting 6 20.6
2017-Sep-22 03:13 321 20.6
2017-Sep-22 03:03 323 0 gusting 5 20.6
2017-Sep-22 02:53 337 2 gusting 6 20.6
2017-Sep-22 02:43 329 20.6
2017-Sep-22 02:33 338 20.6
2017-Sep-22 02:23 346 20.6
2017-Sep-22 02:13 319 20.6
2017-Sep-22 02:03 331 20.6
2017-Sep-22 01:53 329 0 gusting 6 20.6
2017-Sep-22 01:43 327 0 gusting 4 20.6
2017-Sep-22 01:33 333 20.6
2017-Sep-22 01:23 333 0 gusting 5 20.6
2017-Sep-22 01:13 334 21.1
2017-Sep-22 01:03 340 21.1
2017-Sep-22 00:53 334 21.1
2017-Sep-22 00:43 334 0 gusting 5 21.1
2017-Sep-22 00:33 323 21.1
2017-Sep-22 00:23 328 0 gusting 6 21.1
2017-Sep-22 00:13 334 2 gusting 5 21.1
2017-Sep-22 00:03 334 21.1
2017-Sep-21 23:53 315 21.1
2017-Sep-21 23:43 340 21.1
2017-Sep-21 23:33 355 21.7
2017-Sep-21 23:23 337 21.7
2017-Sep-21 23:13 333 21.7
2017-Sep-21 23:03 342 21.7
2017-Sep-21 22:53 338 21.7
2017-Sep-21 22:43 340 1 gusting 4 21.7
2017-Sep-21 22:33 334 21.7
2017-Sep-21 22:23 330 0 gusting 4 21.7
2017-Sep-21 22:13 333 0 gusting 4 21.7
2017-Sep-21 22:03 015 21.7
2017-Sep-21 21:53 034 21.7
2017-Sep-21 21:43 035 21.7
2017-Sep-21 21:33 052 21.7
2017-Sep-21 21:23 051 22.2
2017-Sep-21 21:13 053 22.2
2017-Sep-21 21:03 053 22.2
2017-Sep-21 20:53 053 22.2
2017-Sep-21 20:43 055 22.2
2017-Sep-21 20:34 053 22.2
2017-Sep-21 20:14 053 22.8
2017-Sep-21 20:03 053 22.8
2017-Sep-21 19:54 055 22.8
2017-Sep-21 19:43 053 0 gusting 4 22.8
2017-Sep-21 19:34 065 22.8
2017-Sep-21 19:25 065 22.8
2017-Sep-21 19:13 065 0 gusting 4 22.8
2017-Sep-21 19:04 065 23.3
2017-Sep-21 18:54 064 23.3
2017-Sep-21 18:44 065 0 gusting 3 23.3
2017-Sep-21 18:34 082 0 gusting 6 23.3
2017-Sep-21 18:24 053 23.3
2017-Sep-21 18:13 082 0 gusting 6 23.3
2017-Sep-21 18:04 047 23.9
2017-Sep-21 17:54 063 1 gusting 6 23.9
2017-Sep-21 17:44 060 0 gusting 6 23.9
2017-Sep-21 17:34 075 3 gusting 7 23.9
2017-Sep-21 17:24 090 23.9
2017-Sep-21 17:14 079 2 gusting 8 24.4
2017-Sep-21 17:04 089 1 gusting 7 24.4
2017-Sep-21 16:54 099 1 gusting 10 24.4
2017-Sep-21 16:44 094 0 gusting 7 25.0
2017-Sep-21 16:34 069 4 gusting 8 25.0
2017-Sep-21 16:24 094 3 gusting 9 25.0
2017-Sep-21 16:14 069 6 gusting 8 25.0
2017-Sep-21 16:04 085 5 gusting 10 25.6
2017-Sep-21 15:54 133 4 gusting 8 26.1
2017-Sep-21 15:44 136 5 gusting 9 25.6
2017-Sep-21 15:34 082 5 gusting 9 25.6
2017-Sep-21 15:24 063 1 gusting 9 26.1
2017-Sep-21 15:15 071 2 gusting 9 26.7
2017-Sep-21 15:04 067 1 gusting 10 26.7
2017-Sep-21 14:54 051 3 gusting 9 26.7
2017-Sep-21 14:44 084 3 gusting 8 26.7
2017-Sep-21 14:34 068 5 gusting 9 26.7
2017-Sep-21 14:24 100 6 gusting 9 26.7
2017-Sep-21 14:14 088 2 gusting 7 26.7
2017-Sep-21 14:04 129 0 gusting 4 26.7
2017-Sep-21 13:54 091 4 gusting 7 26.7
2017-Sep-21 13:44 083 0 gusting 9 26.7
2017-Sep-21 13:34 113 3 gusting 11 26.7
2017-Sep-21 13:24 088 1 gusting 7 26.7
2017-Sep-21 13:14 090 6 gusting 8 27.2
2017-Sep-21 13:04 136 0 gusting 10 27.2
2017-Sep-21 12:55 103 0 gusting 6 27.2
2017-Sep-21 12:46 080 1 gusting 8 27.2
2017-Sep-21 12:35 132 2 gusting 9 27.2
2017-Sep-21 12:26 071 4 gusting 9 27.2
2017-Sep-21 12:14 123 3 gusting 7 27.2
2017-Sep-21 12:04 144 2 gusting 9 27.8
2017-Sep-21 11:54 132 0 gusting 7 27.8
2017-Sep-21 11:44 106 27.2
2017-Sep-21 11:34 086 1 gusting 6 27.2
2017-Sep-21 11:25 109 0 gusting 6 27.2
2017-Sep-21 11:14 108 27.2
2017-Sep-21 11:04 052 26.7
2017-Sep-21 10:54 045 2 gusting 5 26.7
2017-Sep-21 10:44 132 0 gusting 6 26.7
2017-Sep-21 10:34 055 26.7
2017-Sep-21 10:24 079 2 gusting 6 26.7
2017-Sep-21 10:14 029 26.1
2017-Sep-21 10:05 028 0 gusting 5 26.1
2017-Sep-21 09:55 355 26.1
2017-Sep-21 09:45 033 25.6
2017-Sep-21 09:35 049 25.0
2017-Sep-21 09:25 059 0 gusting 3 25.6
2017-Sep-21 09:15 017 25.6
2017-Sep-21 09:05 319 25.6
2017-Sep-21 08:55 321 25.0
2017-Sep-21 08:45 319 24.4
2017-Sep-21 08:35 338 23.9
2017-Sep-21 08:25 339 22.8
2017-Sep-21 08:15 341 22.8
2017-Sep-21 08:05 333 22.2
2017-Sep-21 07:55 326 0 gusting 5 22.2
2017-Sep-21 07:45 333 0 gusting 5 22.2
2017-Sep-21 07:35 338 1 gusting 6 21.7
2017-Sep-21 07:25 339 21.7
2017-Sep-21 07:15 341 2 gusting 6 21.1
2017-Sep-21 07:05 331 20.6
2017-Sep-21 06:55 336 1 gusting 6 20.0
2017-Sep-21 06:45 323 1 gusting 7 20.0
2017-Sep-21 06:35 340 2 gusting 6 19.4
2017-Sep-21 06:25 331 2 gusting 8 19.4
2017-Sep-21 06:15 319 18.9
2017-Sep-21 06:05 318 18.9
2017-Sep-21 05:55 326 0 gusting 6 18.9
2017-Sep-21 05:45 342 18.9
2017-Sep-21 05:34 331 18.9
2017-Sep-21 05:25 321 18.9
2017-Sep-21 05:15 336 0 gusting 5 18.9
2017-Sep-21 05:05 329 0 gusting 6 18.9
2017-Sep-21 04:55 331 0 gusting 5 19.4
2017-Sep-21 04:45 313 0 gusting 6 19.4
2017-Sep-21 04:35 338 19.4
2017-Sep-21 04:25 337 19.4
2017-Sep-21 04:15 336 19.4
2017-Sep-21 04:05 338 19.4
2017-Sep-21 03:55 336 19.4
2017-Sep-21 03:45 337 19.4
2017-Sep-21 03:35 328 0 gusting 4 19.4
2017-Sep-21 03:25 336 0 gusting 5 19.4
2017-Sep-21 03:15 327 19.4
2017-Sep-21 03:05 321 19.4
2017-Sep-21 02:55 329 19.4
2017-Sep-21 02:45 323 20.0
2017-Sep-21 02:35 329 20.0
2017-Sep-21 02:25 331 3 gusting 7 20.0
2017-Sep-21 02:15 309 2 gusting 6 20.0
2017-Sep-21 02:06 337 20.0